TeikyoSat 4
1 49396U 21102B   25295.52464757  .00003328  00000-0  21815-3 0  9996
2 49396  97.3965 329.0391 0013266  36.8463 323.3675 15.08293735216884
Z-Sat
1 49399U 21102E   25295.49375742  .00005773  00000-0  30518-3 0  9996
2 49399  97.3655 332.9825 0017461   1.7757 358.3535 15.15725768217402
KOSEN 1
1 49402U 21102H   25295.06139559  .00011307  00000-0  49059-3 0  9998
2 49402  97.3553 337.0493 0014134 333.6508  26.4008 15.22413646217737
HO-113
1 50466U 21131B   25295.47761027  .00001030  00000-0  33423-3 0  9998
2 50466  98.5077  24.1574 0005272  93.6942 266.4850 14.41005550200874
SNUGLITE 2
1 52899U 22065F   25295.39591005  .00002111  00000-0  41527-3 0  9990
2 52899  98.1886  76.2401 0008395  56.0352 304.1647 14.63618577176200
UmKA 1 (RS40S)
1 57172U 23091G   25295.51231244  .00009218  00000-0  46672-3 0  9990
2 57172  97.5418 350.2158 0012849 222.5501 137.4737 15.17154949127922
CubeBel-2 (EU11S)
1 57175U 23091K   25295.47718066  .00013835  00000-0  60289-3 0  9990
2 57175  97.5417 352.2414 0010368 225.9242 134.1141 15.22264376128054
ENSO
1 58470U 23185J   25295.07210078  .00430002  70884-4  14830-2 0  9999
2 58470  97.3516  16.4799 0006278 272.5244  87.5310 15.89509478106087
SONATE-2
1 59112U 24043Q   25295.36302709  .00031917  00000-0  76014-3 0  9996
2 59112  97.5303  69.8548 0009566 354.8589   5.2557 15.41498171 91055
MO-122
1 60209U 24125G   25295.39931941  .00032872  00000-0  76233-3 0  9999
2 60209  97.2595 145.8723 0016932  17.4137 342.7688 15.42186346 72681
GRBBeta
1 60237U 24128C   25295.50475237  .00005266  00000-0  38073-3 0  9994
2 60237  61.9913 328.6904 0056989  85.6824 275.0776 15.04028821 70485
Curium One
1 60242U 24128H   25295.48021868  .00009447  00000-0  60925-3 0  9990
2 60242  61.9806 324.7821 0056731  82.1693 278.5836 15.07555764 70555
ROBUSTA-3A
1 60243U 24128J   25295.46288109  .00008792  00000-0  57737-3 0  9991
2 60243  61.9881 326.1621 0056657  79.6565 281.0908 15.06964762 70537
CatSat
1 60246U 24125J   25295.54050553  .00033852  00000-0  94451-3 0  9999
2 60246  97.2408 143.6241 0036717 334.6749  25.2694 15.35977652 70657
HYPERVIEW-1G (RS66S)
1 61772U 24199AP  25295.58254723  .00039457  00000-0  89891-3 0  9993
2 61772  97.3280 164.5592 0013864  69.5816 290.6919 15.42732812 97718
AO-123
1 61781U 24199AY  25295.50393583  .00011539  00000-0  39144-3 0  9990
2 61781  97.3309 161.5514 0017076  79.6583 280.6582 15.30541624 97501
ZIMSAT 2
1 61783U 24199BA  25295.52625332  .00107174  00000-0  15236-2 0  9990
2 61783  97.3210 166.6686 0012250  65.1257 295.1269 15.55933352101001
HADES-R (SO-124)
1 62690U 25009CK  25295.20248918  .00103507  00000-0  22576-2 0  9996
2 62690  97.3974  16.4683 0002238 299.5199  60.5826 15.43844692 42796
HYDRA-T
1 62692U 25009CM  25295.21745691  .00105706  00000-0  22509-2 0  9998
2 62692  97.3972  16.6005 0002341 288.9017  71.1977 15.44546625 42805
JINJUSat 1B
1 63210U 25052A   25295.49145913  .00018330  00000-0  74945-3 0  9992
2 63210  97.4223 188.0501 0003196 168.5441 191.5870 15.24400966 33770
NUSHSAT 1
1 63211U 25052B   25295.45039990  .00022788  00000-0  91116-3 0  9997
2 63211  97.4211 188.0737 0002903 173.3362 186.7915 15.25105918 33776
TEVEL2-4
1 63213U 25052D   25295.49720484  .00020063  00000-0  81513-3 0  9992
2 63213  97.4127 187.7728 0001570 175.2661 184.8592 15.24598154 33779
TEVEL2-5
1 63214U 25052E   25295.50060565  .00019681  00000-0  80094-3 0  9999
2 63214  97.4129 187.7689 0001578 176.1365 183.9885 15.24547175 33779
TEVEL2-6
1 63215U 25052F   25295.44069428  .00020976  00000-0  85447-3 0  9996
2 63215  97.4130 187.7001 0001544 178.6227 181.5015 15.24501173 33763
TEVEL2-1
1 63217U 25052H   25295.21062670  .00019996  00000-0  82188-3 0  9994
2 63217  97.4104 187.3247 0001055 213.0282 147.0890 15.24209325 33724
TEVEL2-3
1 63218U 25052J   25295.21041677  .00019861  00000-0  81603-3 0  9991
2 63218  97.4104 187.3278 0001051 215.6912 144.4256 15.24222786 33726
TEVEL2-2
1 63219U 25052K   25295.47400039  .00020061  00000-0  82435-3 0  9999
2 63219  97.4103 187.5851 0001064 213.5773 146.5397 15.24216787 33768
TEVEL2-9
1 63237U 25052AD  25295.25746553  .00020319  00000-0  86928-3 0  9996
2 63237  97.4169 187.1454 0005031 264.9423  95.1239 15.22841050 33708
TEVEL2-7
1 63238U 25052AE  25295.26692318  .00019325  00000-0  82979-3 0  9994
2 63238  97.4169 187.1380 0005081 264.7491  95.3166 15.22725687 33703
TEVEL2-8
1 63239U 25052AF  25295.46878377  .00018946  00000-0  81414-3 0  9999
2 63239  97.4167 187.3244 0005099 264.4469  95.6186 15.22703540 33736
HYDRA-W
1 63490U 25052BL  25295.20747257  .00062140  00000-0  19183-2 0  9990
2 63490  97.4104 188.5753 0005533 252.2103 107.8536 15.33316153 33802
HADES-ICM (SO-125)
1 63492U 25052BN  25295.47827846  .00052609  00000-0  16845-2 0  9995
2 63492  97.4111 188.6896 0006145 257.6986 102.3568 15.32191748 33837
Dragonfly
1 65729U 98067XH  25295.29964837  .00104078  00000-0  13740-2 0  9997
2 65729  51.6322  36.0426 0001833  38.7237 321.3886 15.57549939  5111
RSP-03
1 65732U 98067XL  25295.30639821  .00089011  00000-0  12102-2 0  9995
2 65732  51.6325  36.0876 0004249   1.6245 358.4760 15.56826135  5127
GHS-01
1 65733U 98067XM  25294.58964633  .00121808  00000-0  15842-2 0  9992
2 65733  51.6341  39.5514 0001959  29.1737 330.9364 15.57871320  5019
BOTAN
1 65942U 98067XP  25295.31551466  .00081366  00000-0  13003-2 0  9993
2 65942  51.6339  36.8959 0003918 309.5911  50.4733 15.52446848  1857
